This is the latest recevied weather packets stored in our database for station/object IW7DVM-13. If no packets are shown the sender has not sent any weather packets the latest 10 day(s).
| Time | Temp. | Humidity | Pressure | Rain* | Wind** | Luminosity | Snow |
|---|---|---|---|---|---|---|---|
| 1787750703 | 33.89° C | 53% | 1009.1 hPa | 0 mm | - | - | - |
| 1787750406 | 34.44° C | 52% | 1009.2 hPa | 0 mm | - | - | - |
| 1787750103 | 35.56° C | 48% | 1009.2 hPa | 0 mm | - | - | - |
| 1787749803 | 35° C | 45% | 1009.2 hPa | 0 mm | - | - | - |
| 1787749503 | 34.44° C | 45% | 1009.2 hPa | 0 mm | - | - | - |
| 1787749203 | 34.44° C | 44% | 1009.3 hPa | 0 mm | - | - | - |
| 1787748903 | 35° C | 43% | 1009.3 hPa | 0 mm | - | - | - |
| 1787748603 | 35° C | 44% | 1009.3 hPa | 0 mm | - | - | - |
| 1787748304 | 35° C | 44% | 1009.4 hPa | 0 mm | - | - | - |
| 1787748003 | 35.56° C | 44% | 1009.5 hPa | 0 mm | - | - | - |
| 1787747703 | 35° C | 42% | 1009.5 hPa | 0 mm | - | - | - |
| 1787747403 | 34.44° C | 44% | 1009.5 hPa | 0 mm | - | - | - |
| 1787747103 | 35° C | 43% | 1009.6 hPa | 0 mm | - | - | - |
| 1787746803 | 35.56° C | 45% | 1009.5 hPa | 0 mm | - | - | - |
| 1787746503 | 34.44° C | 43% | 1009.6 hPa | 0 mm | - | - | - |
| 1787746203 | 33.89° C | 42% | 1009.6 hPa | 0 mm | - | - | - |
| 1787745903 | 33.89° C | 45% | 1009.8 hPa | 0 mm | - | - | - |
| 1787745603 | 33.33° C | 52% | 1009.8 hPa | 0 mm | - | - | - |
| 1787745303 | 33.33° C | 52% | 1009.9 hPa | 0 mm | - | - | - |
| 1787745003 | 33.33° C | 53% | 1009.8 hPa | 0 mm | - | - | - |
| 1787744703 | 32.78° C | 54% | 1009.8 hPa | 0 mm | - | - | - |
| 1787744403 | 32.78° C | 54% | 1009.9 hPa | 0 mm | - | - | - |
| 1787744103 | 32.78° C | 55% | 1010 hPa | 0 mm | - | - | - |
| 1787743803 | 32.22° C | 56% | 1010.1 hPa | 0 mm | - | - | - |
| 1787743503 | 32.22° C | 56% | 1009.9 hPa | 0 mm | - | - | - |
* Rain latest hour (hover to see other rain measurements)
** Current wind speed in m/s (hover to see current wind gust speed)